Weather observations for the past three days for
Delta Junction/Ft Greely, Allen Army Airfield
Metric (Imperial)
Date Time (akdt) Wind (kph) Vis. (km) Weather Sky Cond. Temperature (ºC) Relative Humidity Wind Chill (°C) Heat Index (°C) Pressure Precipitation (cm)
Air Dwpt 6 hour altimeter (cm) sea level (mb) 1 hr 3 hr 6 hr
Max. Min.
16 02:53 SW 11 16.09 Fair CLR 12.2 7.8 75% 76.56 1020.6
16 01:53 S 9 16.09 Fair CLR 13.3 8.9 75% 76.53 1020.4
16 00:53 S 6 16.09 Mostly Cloudy BKN120 14.4 10 75% 76.53 1020.4
15 23:53 SW 9 16.09 Overcast OVC120 17.2 9.4 60% 76.53 1020.1
15 22:53 SW 11 16.09 Mostly Cloudy BKN120 18.3 10 59% 76.5 1019.8
15 21:53 W 7 16.09 Fair CLR 19.4 8.9 22.8 18.9 51% 76.5 1019.7
15 20:53 W 7 16.09 Mostly Cloudy FEW055 FEW075 SCT100 BKN190 19.4 7.8 47% 76.48 1019.8
15 19:53 N 11 16.09 Mostly Cloudy FEW055 SCT075 SCT100 BKN190 19.4 8.3 49% 76.48 1019.8
15 18:53 N 17 16.09 Mostly Cloudy SCT055 SCT075 BKN100 19.4 8.3 49% 76.48 1019.9
15 17:53 Calm 16.09 Partly Cloudy SCT055 SCT075 SCT100 22.2 7.8 40% 76.45 1019.2
15 16:53 Calm 16.09 Partly Cloudy SCT055 SCT075 SCT100 22.8 6.1 34% 76.45 1019.3
15 15:53 Vrbl 6 16.09 Partly Cloudy SCT055 SCT075 SCT100 22.2 7.2 22.2 14.4 38% 76.48 1019.6
15 14:53 Vrbl 7 16.09 Partly Cloudy SCT055 SCT075 SCT100 21.1 7.2 41% 76.5 1020.0
15 13:53 Vrbl 11 16.09 Partly Cloudy SCT060 SCT075 SCT100 20 7.8 45% 76.53 1020.5
15 12:53 Vrbl 6 16.09 Partly Cloudy SCT040 SCT065 SCT100 18.9 7.2 47% 76.56 1021.0
15 11:53 S 6 16.09 Partly Cloudy FEW040 FEW065 SCT100 SCT200 18.3 9.4 56% 76.61 1021.4
15 10:53 Vrbl 9 16.09 Partly Cloudy FEW040 FEW075 SCT100 SCT200 16.7 8.9 60% 76.63 1021.9
15 09:53 W 6 16.09 Mostly Cloudy SCT075 BKN100 BKN160 14.4 9.4 14.4 9.4 72% 76.66 1022.1
15 08:53 Calm 16.09 Mostly Cloudy SCT075 BKN100 BKN160 12.8 8.9 77% 76.66 1022.3
15 07:53 Calm 16.09 Mostly Cloudy SCT075 BKN110 BKN160 11.7 8.3 80% 76.66 1022.4
15 06:53 S 9 16.09 Mostly Cloudy SCT075 BKN100 BKN200 10.6 7.8 83% 76.63 1022.3
15 05:53 W 7 16.09 Mostly Cloudy SCT075 BKN100 BKN200 10.6 7.2 80% 76.63 1022.2
15 04:53 SW 15 16.09 Partly Cloudy SCT085 9.4 7.2 86% 7 76.61 1021.8
15 03:53 SW 13 16.09 Overcast OVC100 10 7.2 14.4 8.9 83% 8 76.61 1021.5
15 02:53 SW 6 16.09 A Few Clouds FEW120 9.4 7.2 86% 76.61 1021.8
15 01:53 S 7 16.09 Fair CLR 10 8.3 89% 9 76.61 1021.7
15 00:53 S 6 16.09 Fair CLR 10.6 8.3 86% 76.61 1021.7
14 23:53 SW 13 16.09 Fair CLR 11.7 9.4 86% 76.56 1021.2
14 22:53 SW 13 16.09 Fair CLR 13.3 9.4 77% 76.56 1021.0
14 21:53 W 9 16.09 Mostly Cloudy BKN110 14.4 9.4 18.3 13.9 72% 76.56 1021.0
14 20:53 SW 17 16.09 Mostly Cloudy FEW040 FEW070 SCT110 BKN200 14.4 9.4 72% 76.56 1020.9
14 19:53 SW 22 16.09 Mostly Cloudy FEW040 FEW070 BKN120 BKN200 13.9 10 78% 76.56 1021.2
14 18:53 W 9 16.09 Mostly Cloudy FEW040 FEW070 SCT100 BKN130 BKN200 15 8.3 64% 76.58 1021.6
14 17:53 NE 19 16.09 Overcast FEW043 BKN060 OVC110 15.6 8.3 62% 76.58 1021.6
14 16:53 E 9 16.09 Overcast BKN043 BKN060 OVC095 15.6 8.9 65% 76.53 1020.9
14 15:53 N 15 16.09 Overcast BKN043 BKN060 BKN075 OVC130 18.3 9.4 18.3 13.3 56% 76.5 1020.2
14 14:53 N 13 16.09 Mostly Cloudy SCT032 BKN050 BKN110 BKN200 17.2 10 63% 76.53 1020.5
14 13:53 W 17 16.09 Mostly Cloudy SCT032 BKN050 BKN110 BKN200 17.2 10 63% 76.56 1020.8
14 12:53 W 20 16.09 Mostly Cloudy SCT024 BKN035 BKN120 BKN200 15.6 10 70% 76.58 1021.2
14 11:53 W 15 16.09 Mostly Cloudy BKN024 BKN033 BKN120 14.4 10.6 78% 76.63 1021.8
14 10:53 SW 9 16.09 Overcast BKN024 OVC035 13.9 10.6 81% 76.63 1022.0
14 09:53 SW 9 16.09 Overcast BKN022 BKN035 OVC065 13.3 10 13.3 10.6 81% 76.66 1022.2 0.05
14 08:53 SW 13 16.09 Overcast FEW015 BKN027 BKN065 OVC130 12.8 10.6 87% 76.66 1022.2
14 07:53 SW 17 16.09 Overcast BKN026 BKN035 OVC065 11.7 10 89% 76.66 1022.1
14 06:53 SW 13 16.09 Overcast BKN021 BKN030 OVC065 11.1 9.4 89% 76.66 1022.3 0.05
14 05:53 SW 15 16.09 Overcast OVC020 10.6 9.4 92% 76.63 1022.3 0.05
14 04:53 SW 19 16.09 Overcast BKN016 OVC034 10.6 8.9 89% 76.63 1022.2
14 03:53 SW 22 16.09 Mostly Cloudy BKN080 11.1 10 15.6 11.1 93% 76.58 1021.7 0.18 0.46
14 02:53 W 22 2.82 Heavy Rain Fog/Mist FEW021 BKN029 OVC048 12.2 10 87% 76.56 1021.4 0.28
14 01:53 NW 11 16.09 Overcast SCT036 BKN049 OVC110 12.8 8.9 77% 76.56 1021.3
14 00:53 W 9 16.09 Overcast BKN038 OVC045 13.3 9.4 77% 76.53 1021.1
13 23:53 W 9 16.09 Mostly Cloudy BKN049 BKN110 13.9 10 78% 76.5 1020.8
13 22:53 W 9 16.09 Mostly Cloudy BKN120 14.4 10.6 78% 76.48 1020.4
13 21:53 W 11 16.09 Overcast OVC100 15.6 10 17.2 14.4 70% 76.48 1020.2
13 20:53 NW 9 16.09 Overcast FEW035 BKN110 BKN160 OVC200 16.1 10 67% 76.5 1020.3
13 19:53 NW 15 16.09 Overcast FEW028 SCT035 BKN100 BKN160 OVC200 16.7 10 65% 76.48 1020.1
13 18:53 N 9 16.09 Overcast FEW028 BKN035 BKN060 BKN160 OVC200 16.7 9.4 62% 76.48 1020.1
13 17:53 NW 13 16.09 Overcast SCT026 BKN033 BKN120 OVC200 16.1 10 67% 76.5 1020.3
13 16:53 NW 9 16.09 Overcast SCT023 SCT029 BKN120 OVC200 15 10 72% 76.53 1021.0
13 15:53 NW 15 16.09 Overcast FEW013 SCT017 BKN031 OVC200 14.4 10.6 14.4 9.4 78% 76.58 1021.5
13 14:53 NW 11 16.09 Overcast SCT012 OVC015 12.2 10 87% 76.58 1021.8
13 13:53 W 11 16.09 Overcast SCT010 BKN015 OVC030 11.7 9.4 86% 76.61 1022.2
13 12:53 SW 11 16.09 Overcast SCT010 BKN015 OVC040 10.6 8.9 89% 76.61 1022.4
13 11:53 SW 11 16.09 Overcast BKN011 BKN022 OVC030 10.6 8.9 89% 76.63 1022.4
13 10:53 SW 7 16.09 Overcast BKN013 BKN022 OVC050 10 7.8 86% 9 76.63 1022.4
13 09:53 W 15 16.09 Overcast SCT015 BKN022 OVC050 9.4 7.8 10 9.4 90% 7 76.63 1022.5
13 08:53 W 15 16.09 Overcast FEW010 BKN022 OVC060 9.4 7.8 90% 7 76.61 1022.2
13 07:53 SW 13 16.09 Overcast FEW010 BKN025 OVC060 9.4 7.8 90% 8 76.58 1021.8
13 06:53 W 11 16.09 Overcast FEW010 BKN027 OVC040 9.4 7.8 90% 8 76.56 1021.6
13 05:53 W 11 16.09 Overcast FEW010 BKN027 OVC040 9.4 7.8 90% 8 76.53 1021.2
13 04:53 SW 11 16.09 Overcast OVC029 9.4 8.3 93% 8 76.5 1020.8
13 03:53 SW 15 16.09 Overcast OVC030 9.4 7.8 10.6 9.4 90% 7 76.48 1020.5 0.56
Date Time (akdt) Wind (kph) Vis. (km) Weather Sky Cond. Air Dwpt Max. Min. Relative Humidity Wind Chill (°C) Heat Index (°C) altimeter (cm) sea level (mb) 1 hr 3 hr 6 hr
6 hour
Temperature (ºC) Pressure Precipitation (cm)